Weather observations for the past three days for
Charlottesville-Albemarle Airport
Metric (Imperial)
Date Time (edt) Wind (kph) Vis. (km) Weather Sky Cond. Temperature (ºC) Relative Humidity Wind Chill (°C) Heat Index (°C) Pressure Precipitation (cm)
Air Dwpt 6 hour altimeter (cm) sea level (mb) 1 hr 3 hr 6 hr
Max. Min.
21 13:53 SE 15 16.09 Fair CLR 32.2 18.3 44% 33 76.66 1021.3
21 12:53 Vrbl 6 16.09 Fair CLR 32.2 17.8 42% 33 76.73 1022.0
21 11:53 Vrbl 11 0.00 Fair CLR 32.8 19.4 45% 35 76.78 1022.7
21 10:53 S 9 0.00 Fair CLR 31.7 19.4 48% 33 76.81 1023.1
21 09:53 S 9 16.09 Fair CLR 28.3 18.9 57% 30 76.81 1023.3
21 08:53 S 9 16.09 Fair CLR 26.7 18.9 62% 28 76.84 1023.5
21 07:53 Calm 16.09 Fair CLR 22.8 18.3 23.3 20.6 76% 76.84 1023.6
21 06:53 Calm 16.09 Fair CLR 21.1 17.8 82% 76.84 1023.5
21 05:53 S 11 16.09 Fair CLR 21.1 17.2 79% 76.84 1023.4
21 04:53 SW 6 16.09 Fair CLR 21.1 17.8 82% 76.81 1023.4
21 03:53 W 7 16.09 Fair CLR 21.1 18.3 84% 76.84 1023.4
21 02:53 Calm 16.09 Fair CLR 21.1 17.8 82% 76.84 1023.6
21 01:53 Calm 16.09 Fair CLR 21.7 17.8 30 21.7 79% 76.86 1023.9
21 00:53 Calm 16.09 Fair CLR 23.9 17.2 66% 25 76.89 1024.2
20 23:53 SW 6 16.09 Fair CLR 25 17.2 62% 26 76.91 1024.5
20 22:53 Calm 16.09 Fair CLR 25 17.2 62% 26 76.91 1024.6
20 21:53 S 9 16.09 Fair CLR 25.6 17.2 60% 27 76.89 1024.2
20 20:53 S 7 16.09 Fair CLR 26.7 17.2 56% 27 76.84 1023.7
20 19:53 S 7 16.09 Fair CLR 30 16.7 33.3 30 45% 30 76.84 1023.6
20 18:53 SE 11 16.09 Fair CLR 31.7 16.7 41% 32 76.84 1023.5
20 17:53 Vrbl 7 16.09 Fair CLR 32.2 17.2 41% 33 76.86 1023.8
20 16:53 SE 7 16.09 A Few Clouds FEW055 32.8 17.8 41% 34 76.89 1024.3
20 15:53 Calm 16.09 A Few Clouds FEW055 32.2 17.2 41% 33 76.94 1025.0
20 14:53 S 11 16.09 A Few Clouds FEW050 32.8 17.8 41% 34 76.99 1025.7
20 13:53 S 7 16.09 A Few Clouds FEW048 31.7 17.2 32.2 22.8 42% 32 77.04 1026.3
20 12:53 Calm 16.09 Fair CLR 30 18.3 49% 31 77.09 1026.8
20 11:53 S 6 16.09 Fair CLR 28.9 18.9 55% 30 77.11 1027.3
20 10:53 Calm 16.09 Fair CLR 27.2 18.9 61% 28 77.11 1027.4
20 09:53 Vrbl 6 16.09 Fair CLR 26.7 18.9 62% 28 77.11 1027.4
20 08:53 S 9 16.09 Fair CLR 25 18.3 66% 26 77.14 1027.7
20 07:53 S 7 16.09 Fair CLR 22.8 18.3 23.3 19.4 76% 77.11 1027.4
20 06:53 W 6 16.09 Fair CLR 20.6 17.2 81% 77.09 1027.1
20 05:53 W 7 16.09 Fair CLR 19.4 17.2 87% 77.06 1026.5
20 04:53 Calm 16.09 Fair CLR 20.6 17.2 81% 77.04 1026.1
20 03:53 Calm 16.09 Fair CLR 20.6 17.2 81% 77.01 1026.0
20 02:53 Calm 16.09 Fair CLR 21.7 17.2 76% 77.04 1026.2
20 01:53 SW 7 16.09 Fair CLR 22.8 17.2 29.4 22.2 71% 77.06 1026.5
20 00:53 SW 7 16.09 Fair CLR 23.9 17.2 66% 25 77.06 1026.6
19 23:53 Calm 16.09 Fair CLR 22.8 16.1 66% 77.06 1026.6
19 22:53 SE 6 16.09 Fair CLR 25 15.6 56% 26 77.06 1026.4
19 21:53 SE 6 16.09 Fair CLR 26.1 16.1 54% 27 77.01 1025.9
19 20:53 S 7 16.09 Fair CLR 27.2 16.7 53% 28 76.96 1025.3
19 19:53 S 11 16.09 Fair CLR 29.4 16.7 33.9 28.9 46% 30 76.96 1025.3
19 18:53 SE 9 16.09 Fair CLR 31.1 16.7 42% 31 76.96 1025.1
19 17:53 Vrbl 7 16.09 Fair CLR 32.2 16.1 38% 32 76.94 1025.1
19 16:53 Vrbl 7 16.09 Partly Cloudy SCT060 33.3 16.7 37% 34 76.99 1025.5
19 15:53 SE 9 16.09 Partly Cloudy SCT055 32.8 16.7 38% 33 76.99 1025.5
19 14:53 S 7 16.09 Mostly Cloudy BKN050 31.7 16.7 41% 32 77.01 1025.9
19 13:53 W 7 16.09 A Few Clouds FEW050 31.7 16.7 32.2 22.8 41% 32 77.06 1026.5
19 12:53 S 13 16.09 Partly Cloudy SCT041 SCT050 31.1 17.8 45% 32 77.11 1027.1
19 11:53 Calm 16.09 Mostly Cloudy BKN036 28.9 18.3 53% 30 77.11 1027.3
19 10:53 Calm 16.09 Fair CLR 28.3 18.9 57% 30 77.11 1027.4
19 09:53 Vrbl 6 16.09 Fair CLR 26.1 18.3 62% 27 77.11 1027.4
19 08:53 SE 6 16.09 Fair CLR 25 18.3 66% 26 77.11 1027.3
19 07:53 S 9 16.09 Fair CLR 22.8 18.3 23.9 20.6 76% 77.09 1027.0
19 06:53 Calm 16.09 Fair CLR 21.7 18.3 81% 77.04 1026.2
19 05:53 Calm 16.09 Fair CLR 21.1 17.2 79% 77.01 1025.9
19 04:53 Calm 16.09 A Few Clouds FEW055 20.6 17.2 81% 76.99 1025.6
19 03:53 SE 6 16.09 Partly Cloudy SCT055 22.2 17.2 73% 76.96 1025.2
19 02:53 Calm 16.09 A Few Clouds FEW060 22.8 17.2 71% 76.94 1024.7
19 01:53 Calm 16.09 A Few Clouds FEW055 22.2 17.8 30 22.2 76% 76.91 1024.6
19 00:53 Calm 16.09 Fair CLR 23.9 18.3 71% 25 76.89 1024.1
18 23:53 S 6 16.09 Fair CLR 25.6 18.3 64% 27 76.89 1024.1
18 22:53 SW 6 16.09 Fair CLR 26.1 18.3 62% 27 76.86 1023.9
18 21:53 S 6 16.09 Fair CLR 26.7 18.3 60% 28 76.86 1023.8
18 20:53 S 11 16.09 Fair CLR 28.3 18.9 57% 30 76.78 1022.8
18 19:53 S 11 16.09 Fair CLR 30 18.9 34.4 30 51% 31 76.76 1022.4
18 18:53 SE 17 16.09 Fair CLR 32.2 18.9 45% 34 76.71 1021.9
18 17:53 SE 13 16.09 Fair CLR 32.8 18.9 44% 34 76.71 1021.6
18 16:53 SE 15 16.09 Fair CLR 33.3 18.9 43% 35 76.73 1022.0
18 15:53 SE 15 G 31 16.09 Mostly Cloudy FEW047 BKN055 33.9 20 44% 36 76.76 1022.4
18 14:53 Calm 16.09 Partly Cloudy FEW045 SCT060 33.3 20 46% 36 76.78 1022.6
Date Time (edt) Wind (kph) Vis. (km) Weather Sky Cond. Air Dwpt Max. Min. Relative Humidity Wind Chill (°C) Heat Index (°C) altimeter (cm) sea level (mb) 1 hr 3 hr 6 hr
6 hour
Temperature (ºC) Pressure Precipitation (cm)